Location: Newark
(43.6583°N, 1.6617°E)
Time: 07:34:48
(UTC+00:00)

Vanguard 2 Rocket - Visible Passes

Search period start: 19 August 2019 00:00
Search period end: 29 August 2019 00:00
Orbit: 553 x 3327 km, 32.9° (Epoch: 18 August)

Date Brightness Start Highest point End Pass type
(mag) Time Alt. Az. Time Alt. Az. Time Alt. Az.
19 Aug 10.4 00:31:52 10° SE 00:32:05 10° SE 00:32:19 10° ESE visible
19 Aug 9.6 02:36:42 22° S 02:44:33 36° SE 03:00:52 10° E visible
20 Aug 9.7 01:40:24 23° SSE 01:44:23 26° SE 01:57:31 10° E visible
20 Aug 9.7 03:46:12 15° SW 03:58:37 51° SSE 04:17:32 10° E visible
21 Aug 10.0 00:44:06 16° SE 00:44:43 17° SE 00:53:03 10° E visible
21 Aug 9.4 02:49:54 25° SSW 02:57:41 43° SSE 03:15:02 10° E visible
22 Aug 9.4 01:53:35 29° S 01:57:20 33° SE 02:12:07 10° E visible
22 Aug 9.6 03:59:23 14° WSW 04:12:08 56° SSE 04:31:24 10° E visible
23 Aug 9.7 00:57:17 23° SE 00:57:31 23° SE 01:08:39 10° E visible
23 Aug 9.3 03:03:05 26° SW 03:11:03 49° SSE 03:29:00 10° E visible
24 Aug 10.1 00:00:59 13° ESE 00:00:59 13° ESE 00:03:56 10° ESE visible
24 Aug 9.1 02:06:46 35° S 02:10:31 41° SSE 02:26:17 10° E visible
24 Aug 9.6 04:12:34 11° WSW 04:25:47 58° S 04:45:09 10° ESE visible
25 Aug 9.3 01:10:28 31° SE 01:10:32 31° SE 01:23:18 10° E visible
25 Aug 9.2 03:16:16 25° SW 03:24:36 54° SSE 03:42:50 10° E visible
26 Aug 9.8 00:14:11 18° ESE 00:14:11 18° ESE 00:19:52 10° E visible
26 Aug 8.9 02:19:58 38° SSW 02:23:56 47° SSE 02:40:14 10° E visible
26 Aug 9.5 04:26:07 10° WSW 04:39:30 57° S 04:58:45 10° ESE visible
27 Aug 9.0 01:23:42 38° SSE 01:23:46 38° SSE 01:37:30 10° E visible
27 Aug 9.2 03:29:29 22° WSW 03:38:18 56° S 03:56:32 10° ESE visible
28 Aug 9.6 00:27:27 24° ESE 00:27:27 24° ESE 00:34:37 10° E visible
28 Aug 8.7 02:33:14 38° SSW 02:37:32 51° SSE 02:54:03 10° E visible
28 Aug 9.6 04:40:09 10° W 04:53:14 54° S 05:12:08 10° ESE visible
28 Aug 10.2 23:31:13 10° E 23:31:13 10° E 23:31:18 10° E visible
